This is the latest recevied weather packets stored in our database for station/object OE-11399. If no packets are shown the sender has not sent any weather packets the latest 10 day(s).
| Time | Temp. | Humidity | Pressure | Rain* | Wind** | Luminosity | Snow |
|---|---|---|---|---|---|---|---|
| 1787774727 | 17.78° C | 82% | 854.9 hPa | 0 mm | - | 0 W/m² | - |
| 1787774127 | 18.33° C | 79% | 855 hPa | 0 mm | - | 0 W/m² | - |
| 1787773300 | 18.89° C | 78% | 855.1 hPa | 0 mm | - | 0 W/m² | - |
| 1787772927 | 18.89° C | 79% | 855.1 hPa | 0 mm | - | 0 W/m² | - |
| 1787772327 | 18.89° C | 78% | 855.1 hPa | 0 mm | - | 0 W/m² | - |
| 1787771500 | 19.44° C | 75% | 854.9 hPa | 0 mm | - | 0 W/m² | - |
| 1787771126 | 19.44° C | 73% | 854.9 hPa | 0 mm | - | 0 W/m² | - |
| 1787770527 | 19.44° C | 74% | 854.8 hPa | 0 mm | - | 0 W/m² | - |
| 1787769700 | 20° C | 72% | 854.9 hPa | 0 mm | - | 0 W/m² | - |
| 1787769327 | 20.56° C | 69% | 854.8 hPa | 0 mm | - | 0 W/m² | - |
| 1787768727 | 20.56° C | 68% | 854.7 hPa | 0 mm | - | 0 W/m² | - |
| 1787767901 | 21.11° C | 65% | 854.7 hPa | 0 mm | - | 0 W/m² | - |
| 1787767527 | 21.11° C | 64% | 854.7 hPa | 0 mm | - | 7 W/m² | - |
| 1787766927 | 21.67° C | 63% | 854.7 hPa | 0 mm | - | 15 W/m² | - |
| 1787766100 | 21.67° C | 62% | 854.8 hPa | 0 mm | - | 37 W/m² | - |
| 1787765727 | 22.22° C | 61% | 854.7 hPa | 0 mm | - | 44 W/m² | - |
| 1787765127 | 22.22° C | 59% | 854.8 hPa | 0 mm | - | 44 W/m² | - |
| 1787764300 | 22.22° C | 58% | 854.7 hPa | 0 mm | - | 59 W/m² | - |
| 1787763927 | 22.78° C | 58% | 854.5 hPa | 0 mm | - | 103 W/m² | - |
| 1787763326 | 22.78° C | 57% | 854.6 hPa | 0 mm | - | 139 W/m² | - |
| 1787762500 | 22.78° C | 56% | 854.6 hPa | 0 mm | - | 132 W/m² | - |
| 1787762127 | 22.78° C | 55% | 854.8 hPa | 0 mm | - | 132 W/m² | - |
| 1787761527 | 23.33° C | 54% | 854.8 hPa | 0 mm | - | 220 W/m² | - |
| 1787760700 | 23.33° C | 54% | 854.8 hPa | 0 mm | - | 330 W/m² | - |
| 1787760327 | 23.33° C | 52% | 854.9 hPa | 0 mm | - | 235 W/m² | - |
* Rain latest hour (hover to see other rain measurements)
** Current wind speed in m/s (hover to see current wind gust speed)